Adamsville, PA

10:35 AM EST on February 08, 2016 (GMT -0500)
Port Meadville

Weather History for KGKJ - December, 2012

Change the Weather History Date:

Friday, December 14, 2012

  Actual Average Record
Temperature  
Mean Temperature 37 °F -  
Max Temperature 44 °F 37 °F 64 °F (2015)
Min Temperature 30 °F 23 °F -6 °F (1958)
Degree Days  
Heating Degree Days 28    
Moisture  
Dew Point 25 °F    
Average Humidity 62    
Maximum Humidity 79    
Minimum Humidity 53    
Precipitation  
Precipitation 0.00 in - - ()
Sea Level Pressure  
Sea Level Pressure 30.25 in    
Wind  
Wind Speed 5 mph (SSW)    
Max Wind Speed 9 mph    
Max Gust Speed 17 mph    
Visibility 10 miles    
Events      
Averages and records for this station are not official NWS values.
T = Trace of Precipitation, MM = Missing Value Source: NWS Daily Summary

Daily Weather History Graph

Daily Weather History Graph

Search for Another Location

Airport or City:

Trip Planner

Search our weather history database for the weather conditions in past years. The results will help you decide how hot, cold, wet, or windy it might be!

Date:

Astronomy

Dec. 14, 2012 Rise Set
Actual Time 7:40 AM EST 4:51 PM EST
Civil Twilight 7:08 AM EST 5:22 PM EST
Nautical Twilight 6:33 AM EST 5:57 PM EST
Astronomical Twilight 6:00 AM EST 6:31 PM EST
Moon 8:43 AM EST (12/14) 6:42 PM EST (12/14)
Length of Visible Light 10h 13m
Length of Day
9h 10m
Waxing Crescent, 3% of the Moon is Illuminated
Dec 14
Waxing Crescent
Dec 20
First Quarter
Dec 28
Full
Jan 4
Last Quarter
Jan 11
New

Hourly Weather History & Observations

Time (EST) Temp. Windchill Dew Point Humidity Pressure Visibility Wind Dir Wind Speed Gust Speed Precip Events Conditions
1:53 AM 33.1 °F 27.7 °F 19.9 °F 59% 30.24 in 10.0 mi South 5.8 mph - N/A   Clear
2:53 AM 34.0 °F 27.2 °F 19.0 °F 54% 30.25 in 10.0 mi South 8.1 mph - N/A   Clear
3:53 AM 32.0 °F 25.6 °F 19.9 °F 61% 30.25 in 10.0 mi South 6.9 mph - N/A   Clear
4:53 AM 34.0 °F 27.2 °F 21.0 °F 59% 30.24 in 10.0 mi SW 8.1 mph 17.3 mph N/A   Clear
5:53 AM 33.1 °F 25.5 °F 21.0 °F 61% 30.25 in 10.0 mi SSW 9.2 mph - N/A   Clear
6:53 AM 32.0 °F 25.6 °F 21.9 °F 66% 30.25 in 10.0 mi SSW 6.9 mph - N/A   Clear
7:53 AM 30.9 °F 24.3 °F 21.9 °F 69% 30.25 in 10.0 mi SSW 6.9 mph - N/A   Clear
8:53 AM 33.1 °F 26.9 °F 23.0 °F 66% 30.25 in 10.0 mi SSW 6.9 mph - N/A   Clear
9:53 AM 36.0 °F 32.1 °F 24.1 °F 62% 30.27 in 10.0 mi WSW 4.6 mph - N/A   Clear
10:53 AM 39.0 °F 33.4 °F 26.1 °F 60% 30.27 in 10.0 mi WSW 8.1 mph - N/A   Clear
11:53 AM 41.0 °F - 28.0 °F 60% 30.26 in 10.0 mi Calm Calm - N/A   Clear
12:53 PM 42.1 °F 38.4 °F 28.0 °F 58% 30.25 in 10.0 mi SW 5.8 mph - N/A   Clear
2:53 PM 44.1 °F 40.1 °F 28.0 °F 53% 30.22 in 10.0 mi WSW 6.9 mph - N/A   Clear
3:53 PM 43.0 °F 40.3 °F 28.0 °F 56% 30.23 in 10.0 mi West 4.6 mph - N/A   Clear
4:53 PM 42.1 °F - 27.0 °F 55% 30.24 in 10.0 mi Calm Calm - N/A   Clear
5:53 PM 41.0 °F - 26.1 °F 55% 30.25 in 10.0 mi Calm Calm - N/A   Clear
6:53 PM 36.0 °F - 27.0 °F 70% 30.26 in 10.0 mi Calm Calm - N/A   Clear
7:53 PM 39.0 °F - 26.1 °F 60% 30.25 in 10.0 mi Calm Calm - N/A   Clear
8:53 PM 36.0 °F - 26.1 °F 67% 30.25 in 10.0 mi Calm Calm - N/A   Clear
9:53 PM 36.0 °F - 26.1 °F 67% 30.25 in 10.0 mi Calm Calm - N/A   Clear
10:53 PM 37.0 °F 34.5 °F 26.1 °F 65% 30.25 in 10.0 mi SSE 3.5 mph - N/A   Clear
11:53 PM 32.0 °F 28.7 °F 26.1 °F 79% 30.23 in 10.0 mi ESE 3.5 mph - N/A   Clear